Location: Fountain Hills
(33.6120°N, 111.7170°W)
Time: 06:51:48
(UTC-07:00)

Hamsat - Visible Passes

Search period start: 26 September 2016 00:00
Search period end: 06 October 2016 00:00
Orbit: 587 x 618 km, 97.6° (Epoch: 26 September)

Date Brightness Start Highest point End Pass type
(mag) Time Alt. Az. Time Alt. Az. Time Alt. Az.
26 Sep ? 04:20:33 10° NNE 04:24:29 34° E 04:28:23 10° SSE visible
27 Sep ? 04:32:18 10° NNE 04:36:30 48° E 04:40:37 10° S visible
28 Sep ? 04:44:10 10° NNE 04:48:29 70° ESE 04:52:44 10° S visible
29 Sep ? 04:56:07 10° N 05:00:27 83° WNW 05:04:43 10° SSW visible
30 Sep ? 05:08:09 10° N 05:12:23 58° WNW 05:16:34 10° SSW visible
01 Oct ? 03:46:22 10° ENE 03:48:23 13° E 03:50:22 10° ESE visible
01 Oct ? 05:20:16 10° N 05:24:19 41° WNW 05:28:18 10° SW visible
02 Oct ? 03:57:28 10° NE 04:00:27 18° E 04:03:23 10° SE visible
02 Oct ? 05:32:29 10° NNW 05:36:13 29° WNW 05:39:55 10° SW visible
03 Oct ? 04:08:56 10° NE 04:12:29 25° E 04:15:59 10° SSE visible
03 Oct ? 05:44:49 10° NNW 05:48:06 22° WNW 05:51:21 10° WSW visible
04 Oct ? 04:20:34 10° NNE 04:24:30 35° E 04:28:22 10° SSE visible
04 Oct ? 05:57:20 10° NNW 05:59:57 16° WNW 06:02:32 10° WSW visible
05 Oct ? 04:32:19 10° NNE 04:36:30 49° E 04:40:36 10° S visible
